Location: �quirre
(50.4736°N, 2.2351°E)
Time: 05:26:33
(UTC+00:00)

IRS-1D - Pass Details

Date: 07 August 2020
Orbit: 741 x 816 km, 98.6° (Epoch: 19 September)

Event Time Altitude Azimuth Distance (km) Brightness Sun altitude
Rises 02:21:10 0° 14° (NNE) 3,211 8.0 -16.1°
Reaches altitude 10° 02:23:27 10° 14° (NNE) 2,290 7.1 -15.9°
Maximum altitude 02:28:30 87° 289° (WNW) 772 3.5 -15.4°
Enters shadow 02:31:55 22° 199° (SSW) 1,653 4.7 -15.0°
